Flag for U.S.A. Weather past 2 weeks in Winder, Georgia, U.S.A.

Now
50 °F

Sunny.


Feels Like: 46 °F
Forecast: 37 / 53 °F
Wind: 10 mph from Northwest

Location: Winder-Barrow Airport

Current Time: Mar 28, 2015 at 2:13:26 PM

Latest Report: Mar 28, 2015 at 1:35 PM


Visibility: 10 mi

Pressure: 30.15 "Hg

Humidity: 40%

Dew point: 27 °F

Location of WinderLocation

Historic Weather in Winder — Graph

°F

Winder temperature yesterday

Maximum temperature yesterday: 64 °F (at 12:15 AM)
Minimum temperature yesterday: 45 °F (at 11:35 PM)
Average temperature yesterday: 56 °F

Past Weeks' High & Low Weather Summary

 TemperatureHumidityPressure
High86 °F (Mar 16, 3:35 PM)100% (Mar 13, 12:15 PM)30.44 "Hg (Mar 13, 12:15 PM)
Low36 °F (Mar 28, 4:55 AM)12% (Mar 16, 4:35 PM)29.73 "Hg (Mar 27, 3:55 AM)
Average59 °F74%30.10 "Hg
* Reported Mar 13 12:15 PM — Mar 28 12:55 PM, Winder, Weather by CustomWeather, © 2015

Note: Actual official high and low records may vary slightly from our data, if they occured in-between our weather recording intervals... More about our weather records

Advertising

Winder weather history for previous 24 hours

 ConditionsComfort  
Time TempWeatherWind HumidityBarometerVisibility
12:55 PM
Sat, Mar 28
48 °FSunny.12 mph37%30.16 "Hg10 mi
12:35 PM48 °FSunny.5 mph43%30.16 "Hg10 mi
12:15 PM46 °FSunny.3 mph46%30.16 "Hg10 mi
11:55 AM45 °FSunny.5 mph49%30.16 "Hg10 mi
11:35 AM45 °FSunny.12 mph49%30.16 "Hg10 mi
11:15 AM45 °FSunny.10 mph49%30.16 "Hg10 mi
10:55 AM43 °FSunny.9 mph53%30.15 "Hg10 mi
10:35 AM43 °FSunny.9 mph53%30.15 "Hg10 mi
10:15 AM41 °FSunny.13 mph57%30.15 "Hg10 mi
9:55 AM41 °FSunny.14 mph57%30.14 "Hg10 mi
9:35 AM41 °FSunny.14 mph61%30.13 "Hg10 mi
9:15 AM39 °FSunny.13 mph65%30.13 "Hg10 mi
8:55 AM37 °FSunny.10 mph70%30.12 "Hg10 mi
8:15 AM36 °FPassing clouds.8 mph75%30.10 "Hg10 mi
7:55 AM36 °FPassing clouds.9 mph81%30.09 "Hg10 mi
7:35 AM36 °FPassing clouds.8 mph81%30.08 "Hg10 mi
7:15 AM36 °FClear.12 mph81%30.08 "Hg10 mi
6:55 AM36 °FPassing clouds.7 mph81%30.07 "Hg10 mi
6:35 AM37 °FPassing clouds.6 mph75%30.07 "Hg10 mi
6:15 AM36 °FClear.5 mph87%30.05 "Hg10 mi
5:55 AM37 °FClear.6 mph81%30.04 "Hg10 mi
5:35 AM37 °FPassing clouds.5 mph81%30.03 "Hg10 mi
5:15 AM36 °FPassing clouds.6 mph87%30.03 "Hg10 mi
4:55 AM36 °FPassing clouds.5 mph87%30.02 "Hg10 mi
4:35 AM37 °FPassing clouds.3 mph81%30.02 "Hg10 mi
4:15 AM37 °FPassing clouds.6 mph81%30.02 "Hg10 mi
3:55 AM37 °FClear.6 mph81%30.02 "Hg10 mi
3:35 AM39 °FClear.7 mph75%30.02 "Hg10 mi
3:15 AM39 °FClear.5 mph75%30.02 "Hg10 mi
2:55 AM41 °FClear.6 mph70%30.03 "Hg10 mi
2:35 AM41 °FClear.7 mph70%30.03 "Hg10 mi
2:15 AM43 °FClear.7 mph66%30.02 "Hg10 mi
1:55 AM43 °FClear.10 mph61%30.02 "Hg10 mi
1:35 AM43 °FClear.12 mph66%30.02 "Hg10 mi
1:15 AM43 °FClear.13 mph66%30.02 "Hg10 mi
12:55 AM43 °FClear.10 mph66%30.02 "Hg10 mi
12:35 AM45 °FClear.12 mph61%30.01 "Hg10 mi
12:15 AM45 °FClear.10 mph61%30.01 "Hg10 mi
11:35 PM
Fri, Mar 27
45 °FClear.13 mph61%29.99 "Hg10 mi
11:15 PM46 °FClear.13 mph57%29.98 "Hg10 mi
10:55 PM46 °FClear.9 mph57%29.97 "Hg10 mi
10:35 PM46 °FClear.8 mph57%29.96 "Hg10 mi
10:15 PM46 °FClear.12 mph57%29.95 "Hg10 mi
9:55 PM48 °FClear.15 mph54%29.95 "Hg10 mi
9:15 PM50 °FPassing clouds.16 mph47%29.92 "Hg10 mi
8:55 PM52 °FClear.12 mph44%29.91 "Hg10 mi
8:15 PM52 °FSunny.15 mph44%29.88 "Hg10 mi
7:55 PM54 °FSunny.16 mph41%29.87 "Hg10 mi
7:35 PM54 °FSunny.12 mph41%29.86 "Hg10 mi
7:15 PM55 °FSunny.15 mph38%29.86 "Hg10 mi
6:55 PM55 °FSunny.16 mph41%29.85 "Hg10 mi
6:35 PM57 °FScattered clouds.15 mph39%29.84 "Hg10 mi
6:15 PM55 °FScattered clouds.12 mph41%29.84 "Hg10 mi
5:55 PM59 °FScattered clouds.12 mph36%29.83 "Hg10 mi
5:15 PM59 °FSunny.16 mph31%29.81 "Hg10 mi
4:55 PM59 °FSunny.22 mph36%29.80 "Hg10 mi
4:35 PM59 °FSunny.22 mph36%29.80 "Hg10 mi
4:15 PM59 °FSunny.18 mph36%29.81 "Hg10 mi
3:55 PM59 °FSunny.18 mph42%29.81 "Hg10 mi
3:15 PM59 °FScattered clouds.18 mph45%29.81 "Hg10 mi
2:55 PM59 °FScattered clouds.18 mph51%29.82 "Hg10 mi
2:35 PM59 °FScattered clouds.20 mph55%29.81 "Hg10 mi
2:15 PM59 °FPartly sunny.16 mph55%29.82 "Hg10 mi
Weather by CustomWeather, © 2015

See weather overviewHow to use our weather pages